Regional Weather Roundup
Issued by NWS Sioux Falls, SD

Home | Current Version | Previous Version | Text Only | Print | Product List | Glossary On
Versions: 1 2 3 4 5 6 7 8 9 10 11 12 13 14 15 16 17 18 19 20 21 22 23 24 25 26 27 28 29 30 31 32 33 34 35 36 37 38 39 40 41 42 43 44 45 46 47 48 49 50
000
ASUS43 KFSD 191102
RWRFSD

WEATHER ROUNDUP FOR SE SOUTH DAKOTA/SW MINNESOTA/NW IOWA
NATIONAL WEATHER SERVICE SIOUX FALLS SD
500 AM CST FRI DEC 19 2014

NOTE: "FAIR" INDICATES FEW OR NO CLOUDS BELOW 12,000 FEET WITH NO
SIGNIFICANT WEATHER AND OR OBSTRUCTIONS TO VISIBILITY.


SDZ038>040-050-052>070-191200-
SOUTHEAST SOUTH DAKOTA

CITY           SKY/WX    TMP DP  RH WIND       PRES   REMARKS
CHAMBERLAIN    NOT AVBL
HURON          CLOUDY    28  25  88 S8        30.09F WCI  20
MADISON        CLOUDY    27  27 100 MISG      30.11S
MITCHELL       CLOUDY    30  26  85 S13       30.11F WCI  20
SIOUX FALLS    CLOUDY    28  25  88 S8        30.14F WCI  20
WINNER         FAIR      19  14  81 S7        30.03F WCI  10
YANKTON        CLOUDY    28  25  86 S10       30.16S WCI  19
$$

MNZ071-072-080-081-089-090-097-098-191200-
SOUTHWEST MINNESOTA

CITY           SKY/WX    TMP DP  RH WIND       PRES   REMARKS
FAIRMONT       CLOUDY    27  18  69 S9        30.20F WCI  17
JACKSON        CLOUDY    28  27  93 S7        30.18F FOG     WCI  21
LUVERNE        CLOUDY    30  28  93 S8        30.16S FOG     WCI  23
MARSHALL       CLOUDY    28  25  86 S6        30.16S WCI  22
MONTEVIDEO     CLOUDY    25  25 100 S8        30.18S WCI  16
PIPESTONE      CLOUDY    27  27 100 SW3       30.13S FOG
REDWOOD FALLS  CLOUDY    26  23  88 SE9       30.19F WCI  17
TRACY          CLOUDY    28  27  96 CALM      30.16S FOG
WINDOM         CLOUDY    27  27 100 CALM      30.18S FOG
WORTHINGTON    CLOUDY    27  25  93 S9        30.16F WCI  17
$$

IAZ001>003-012>014-020>022-031-032-NEZ013-014-SDZ071-191200-
NORTHWEST IOWA

CITY           SKY/WX    TMP DP  RH WIND       PRES   REMARKS
DENISON        CLOUDY    30  30 100 S6        30.19F FOG     WCI  24
ESTHERVILLE    CLOUDY    26  24  92 S10       30.19F WCI  16
SIOUX CITY     CLOUDY    31  28  89 S7        30.20S FOG     WCI  24
SPENCER        CLOUDY    29  26  89 S6        30.19F FOG     WCI  23
$$

ABBREVIATIONS USED IN REMARKS
   TC - TEMPERATURE IN CELSIUS
  WCI - WIND CHILL INDEX
   HX - HEAT INDEX
  VSB - VISIBILITY



USA.gov is the U.S. government's official web portal to all federal, state and local government web resources and services.